[[{"header":{"parameterUnit":"m.s-1","parameterCategory":1,"la1":30.2991,"la2":30.254,"lo1":-89.0895,"lo2":-89.0444,"dy":0.0017,"dx":0.0017,"nx":28,"ny":28,"refTime":"2023-07-29T03:00:00:Z","depth":0,"parameterNumber":2,"parameterNumberName":"U-component_of_WINDS"},"data":[0,0,0,0,0,0,0,0,0,0,0,0,0,0,0,0,0,0,0,0,0,0,0,0,0,0,0,0,0,0,0,0,0,0,0,0,0,0,0,0,0,0,0,0,0,0,0,0,0,0,0,0,0,0,0,0,0,0,3.3391,3.3392,0,3.3444,3.3444,3.3445,3.3385,3.3383,3.338,3.3378,3.3435,3.3438,3.3442,0,0,0,0,0,0,0,0,0,0,0,0,0,3.3243,3.3246,3.3391,3.3392,3.3392,3.3444,3.3444,3.3445,3.3385,3.3382,3.338,3.3377,3.3434,3.3438,3.3442,0,0,0,0,0,0,0,0,0,0,0,0,0,3.3303,3.3247,3.3391,3.3369,3.3367,3.3444,3.3444,3.3445,3.3386,3.3382,3.3379,3.3376,3.3432,3.3438,3.3443,3.3545,0,0,3.346,3.3462,0,0,0,0,0,0,0,0,3.3299,3.3308,3.3371,3.337,3.3369,3.3404,3.3413,3.3479,3.3387,3.3379,3.3378,3.3374,3.3428,3.3433,3.3451,3.3547,3.355,3.346,3.3463,3.3466,3.3467,0,0,0,0,0,0,0,3.3295,3.3306,3.3412,3.3372,3.3371,3.3357,3.3362,3.3425,3.3422,3.3379,3.3375,3.3382,3.3426,3.3446,3.3452,3.3551,3.346,3.3465,3.3468,3.347,3.3738,3.3741,0,0,0,0,0,0,3.3293,3.3303,3.341,3.3413,3.3325,3.3363,3.3368,3.3396,3.3421,3.3421,3.3385,3.3379,3.3438,3.3445,3.3453,3.3577,3.3466,3.3471,3.3474,3.3734,3.3739,3.3743,0,0,0,0,0,0,3.329,3.3303,3.3408,3.3357,3.3369,3.3369,3.3401,3.3399,3.3418,3.3425,3.3425,3.3405,3.3436,3.3446,3.3523,3.3578,3.3473,3.3478,3.3729,3.3735,3.3741,3.3823,0,0,0,0,0,0,3.3286,3.3303,3.334,3.3358,3.3372,3.3476,3.3404,3.3403,3.3428,3.342,3.3444,3.3444,3.3434,3.3515,3.3529,3.3583,3.3482,3.3724,3.3732,3.3739,3.3815,3.383,3.3844,0,0,0,0,0,3.3281,3.3361,3.3342,3.3356,3.3419,3.3479,3.3487,3.3472,3.3432,3.3471,3.3476,3.3444,3.357,3.3524,3.3538,3.3595,3.3721,3.373,3.3738,3.3809,3.3827,3.3843,0,0,0,0,0,0,3.3349,3.3363,3.3342,3.343,3.3454,3.3469,3.3517,3.3492,3.3529,3.3521,3.3502,3.3508,3.3591,3.36,3.3549,3.3697,3.3639,3.3651,3.3687,3.3705,3.3719,3.3716,3.3487,0,0,0,0,0,3.3374,3.3421,3.343,3.3507,3.352,3.3517,3.3542,3.3529,3.3554,3.3564,3.3574,3.36,3.3645,3.3676,3.3718,3.3816,3.3822,3.3863,3.3877,3.3889,3.39,3.3956,3.3975,3.3771,3.3771,3.3771,0,0,3.3426,3.344,3.347,3.3521,3.3538,3.3589,3.3525,3.3581,3.3619,3.3572,3.3646,3.3655,3.3683,3.3772,3.3812,3.3783,3.3958,3.39,3.3909,3.3914,3.3967,3.3986,3.4003,3.3777,3.3776,3.3775,0,0,3.3548,3.3562,3.3628,3.3647,3.3674,3.3672,3.3688,3.3707,3.3712,3.3786,3.3753,3.3798,3.3876,3.3899,3.392,3.4054,3.4027,3.4068,3.4143,3.4198,3.4214,3.4228,3.4279,3.4296,3.4079,3.4079,3.4079,0,3.361,3.3683,3.3666,3.3725,3.3749,3.3709,3.3778,3.3798,3.3837,3.3856,3.3823,3.3922,3.3938,3.4034,3.4067,3.4085,3.4104,3.4066,3.4213,3.4227,3.424,3.4288,3.4306,3.4084,3.4084,3.4083,3.4083,0,3.376,3.3812,3.3862,3.3902,3.3932,3.3996,3.399,3.4023,3.4008,3.401,3.4088,3.4106,3.4152,3.4174,3.416,3.4269,3.425,3.4216,3.4157,3.4265,3.431,3.4327,3.4091,3.409,3.4088,3.4087,0,0,3.3924,3.3955,3.3974,3.3993,3.4021,3.4062,3.4125,3.417,3.42,3.4229,3.4284,3.4352,3.4321,3.4346,3.4334,3.4382,3.4491,3.4342,3.4342,3.4371,3.4615,3.4642,3.4663,3.4473,3.4476,3.4479,3.4613,0,3.4048,3.4156,3.4143,3.4248,3.4297,3.4262,3.4317,3.4342,3.4346,3.439,3.4395,3.4445,3.4399,3.4414,3.446,3.4468,3.454,3.4457,3.4525,3.4527,3.452,3.4686,3.4714,3.484,3.463,3.4633,3.4635,0,3.4206,3.4242,3.4351,3.4375,3.4395,3.4445,3.4487,3.4529,3.4557,3.4557,3.4586,3.4567,3.4633,3.4573,3.4665,3.4609,3.4636,3.4645,3.4649,3.4656,3.4589,3.4699,3.4879,3.4899,3.4662,3.466,3.4658,0,3.4318,3.4393,3.4469,3.4486,3.4515,3.4551,3.4565,3.459,3.4619,3.4656,3.4676,3.472,3.4745,3.4782,3.4776,3.4732,3.4871,3.4809,3.4875,3.4875,3.4906,3.4904,3.5095,3.4921,3.4921,3.4921,3.492,0,3.4458,3.4527,3.452,3.4567,3.4644,3.463,3.4708,3.4717,3.474,3.479,3.4762,3.481,3.4799,3.4847,3.4843,3.4921,3.4932,3.4936,3.4934,3.4939,3.4939,3.4957,3.4949,3.4926,3.4925,3.4924,3.4923,0,3.4596,3.4594,3.4675,3.4696,3.4703,3.4759,3.4778,3.4823,3.4826,3.489,3.4904,3.4909,3.4964,3.4962,3.5025,3.5023,3.512,3.5107,3.511,3.5108,3.5175,3.5169,3.5385,3.5414,3.522,3.5221,3.5223,0,3.4686,3.4738,3.4766,3.4797,3.4813,3.4863,3.4893,3.4883,3.4916,3.4953,3.4995,3.5048,3.509,3.518,3.5191,3.5239,3.5229,3.5301,3.5236,3.524,3.5233,3.523,3.5237,3.5314,3.5317,3.5318,3.532,0,3.4847,3.4844,3.4888,3.4933,3.497,3.5004,3.5036,3.5063,3.5056,3.5095,3.5151,3.5184,3.5249,3.5303,3.535,3.5366,3.5344,3.534,3.5358,3.5364,3.5365,3.5368,3.5147,3.5335,3.5334,3.5333,3.5332,3.5331,3.4965,3.5011,3.5039,3.5089,3.5112,3.5143,3.5188,3.5197,3.5243,3.5295,3.5286,3.535,3.538,3.5442,3.5462,3.5513,3.5488,3.5514,3.552,3.5527,3.5536,3.5356,3.5522,3.5521,3.5521,3.5521,3.552,0,3.5127,3.5143,3.519,3.5236,3.5277,3.5251,3.5285,3.5322,3.5378,3.5408,3.545,3.5516,3.5569,3.5584,3.5636,3.5674,3.5665,3.5688,3.5686,3.5691,3.5554,3.5534,3.5695,3.5695,3.5695,3.5695,3.5695,3.5695,3.5216,3.5293,3.5294,3.5384,3.54,3.5462,3.5485,3.5514,3.5538,3.5613,3.5657,3.5666,3.5691,3.5745,3.5793,3.5796,3.5818,3.5846,3.5845,3.5717,3.57,3.5683,3.5665,3.585,3.585,3.5977,3.5979,3.5979]},{"header":{"parameterUnit":"m.s-1","parameterCategory":1,"la1":30.2991,"la2":30.254,"lo1":-89.0895,"lo2":-89.0444,"dy":0.0017,"dx":0.0017,"nx":28,"ny":28,"refTime":"2023-07-29T03:00:00:Z","depth":0,"parameterNumber":3,"parameterNumberName":"V-component_of_WINDS"},"data":[0,0,0,0,0,0,0,0,0,0,0,0,0,0,0,0,0,0,0,0,0,0,0,0,0,0,0,0,0,0,0,0,0,0,0,0,0,0,0,0,0,0,0,0,0,0,0,0,0,0,0,0,0,0,0,0,0,0,-1.0505,-1.0505,0,-1.0483,-1.0483,-1.0483,-1.0482,-1.0482,-1.0482,-1.0482,-1.0457,-1.0456,-1.0456,0,0,0,0,0,0,0,0,0,0,0,0,0,-1.0544,-1.0544,-1.0505,-1.0505,-1.0505,-1.0483,-1.0483,-1.0483,-1.0482,-1.0482,-1.0482,-1.0483,-1.0458,-1.0457,-1.0455,0,0,0,0,0,0,0,0,0,0,0,0,0,-1.0525,-1.0544,-1.0505,-1.0501,-1.0501,-1.0483,-1.0483,-1.0483,-1.0482,-1.0482,-1.0482,-1.0483,-1.0458,-1.0457,-1.0455,-1.0439,0,0,-1.0451,-1.0451,0,0,0,0,0,0,0,0,-1.0527,-1.0524,-1.0502,-1.0502,-1.0501,-1.0486,-1.0488,-1.0468,-1.0481,-1.0489,-1.0482,-1.0483,-1.0466,-1.0464,-1.0459,-1.0438,-1.0437,-1.0451,-1.045,-1.045,-1.0449,0,0,0,0,0,0,0,-1.0528,-1.0525,-1.0496,-1.0502,-1.0501,-1.0501,-1.0498,-1.0484,-1.0475,-1.0488,-1.0488,-1.0486,-1.0466,-1.0461,-1.0459,-1.0436,-1.0451,-1.045,-1.0449,-1.0448,-1.0403,-1.0402,0,0,0,0,0,0,-1.053,-1.0526,-1.0497,-1.0496,-1.0515,-1.05,-1.0497,-1.049,-1.0476,-1.0474,-1.0485,-1.0486,-1.0463,-1.046,-1.0458,-1.0439,-1.045,-1.0448,-1.0448,-1.0403,-1.0403,-1.0402,0,0,0,0,0,0,-1.0531,-1.0528,-1.0498,-1.0511,-1.0507,-1.0498,-1.0491,-1.049,-1.0484,-1.0474,-1.0472,-1.0481,-1.0463,-1.046,-1.0444,-1.0438,-1.0448,-1.0447,-1.0404,-1.0403,-1.0403,-1.04,0,0,0,0,0,0,-1.0532,-1.0528,-1.0522,-1.0511,-1.0506,-1.0485,-1.049,-1.0489,-1.0482,-1.0482,-1.0469,-1.0468,-1.0463,-1.0446,-1.0443,-1.0436,-1.0445,-1.0404,-1.0403,-1.0403,-1.0401,-1.04,-1.0399,0,0,0,0,0,-1.0534,-1.0521,-1.0521,-1.0518,-1.0499,-1.0485,-1.0482,-1.0478,-1.0482,-1.0475,-1.0469,-1.0468,-1.044,-1.0445,-1.0441,-1.0434,-1.0405,-1.0404,-1.0403,-1.0402,-1.04,-1.0399,0,0,0,0,0,0,-1.053,-1.0519,-1.052,-1.0503,-1.0495,-1.0485,-1.0476,-1.0476,-1.0466,-1.0466,-1.0461,-1.0458,-1.0443,-1.0437,-1.0443,-1.0418,-1.0422,-1.0421,-1.0423,-1.0421,-1.042,-1.0422,-1.0444,0,0,0,0,0,-1.0527,-1.0517,-1.0509,-1.0495,-1.0491,-1.0485,-1.0478,-1.0476,-1.0467,-1.0463,-1.0456,-1.0446,-1.0435,-1.0428,-1.0417,-1.0401,-1.0398,-1.0394,-1.0393,-1.0392,-1.039,-1.0383,-1.0381,-1.0399,-1.0399,-1.0399,0,0,-1.0521,-1.0515,-1.0508,-1.0494,-1.0488,-1.0478,-1.0482,-1.047,-1.0463,-1.0461,-1.0447,-1.0441,-1.043,-1.0415,-1.0408,-1.0409,-1.0385,-1.0391,-1.039,-1.0389,-1.0381,-1.038,-1.0378,-1.0399,-1.0399,-1.0399,0,0,-1.0506,-1.0499,-1.0488,-1.0482,-1.0473,-1.0469,-1.0466,-1.0456,-1.0453,-1.0439,-1.0438,-1.0429,-1.041,-1.0403,-1.0397,-1.0381,-1.0381,-1.0378,-1.0372,-1.0364,-1.0363,-1.0362,-1.0357,-1.0355,-1.0377,-1.0377,-1.0377,0,-1.0499,-1.0484,-1.0482,-1.0471,-1.0466,-1.0466,-1.0454,-1.0448,-1.0435,-1.0431,-1.0434,-1.0412,-1.0404,-1.0388,-1.0384,-1.0379,-1.0376,-1.0379,-1.0364,-1.0362,-1.0361,-1.0356,-1.0354,-1.0376,-1.0376,-1.0376,-1.0376,0,-1.0478,-1.0468,-1.046,-1.0449,-1.0442,-1.0431,-1.0427,-1.0421,-1.042,-1.0416,-1.0402,-1.0394,-1.0382,-1.0378,-1.0376,-1.0362,-1.0363,-1.0365,-1.0369,-1.0359,-1.0355,-1.0353,-1.0376,-1.0376,-1.0376,-1.0376,0,0,-1.0457,-1.0447,-1.0444,-1.044,-1.0431,-1.0423,-1.0413,-1.0403,-1.0398,-1.039,-1.0381,-1.0366,-1.0368,-1.0361,-1.0359,-1.0352,-1.0342,-1.0355,-1.0354,-1.0353,-1.0327,-1.0326,-1.0324,-1.0342,-1.0341,-1.0341,-1.0328,0,-1.0441,-1.0423,-1.0421,-1.0405,-1.0397,-1.0398,-1.0389,-1.0382,-1.0379,-1.0371,-1.0367,-1.0357,-1.036,-1.0356,-1.035,-1.0344,-1.0337,-1.0345,-1.0333,-1.0333,-1.0336,-1.0321,-1.032,-1.0307,-1.0326,-1.0326,-1.0326,0,-1.0419,-1.0412,-1.0395,-1.0389,-1.0386,-1.0378,-1.037,-1.0362,-1.0355,-1.0353,-1.0347,-1.0346,-1.0335,-1.0341,-1.0326,-1.0333,-1.0328,-1.0325,-1.0324,-1.0323,-1.0328,-1.0319,-1.0303,-1.0302,-1.0323,-1.0323,-1.0323,0,-1.0406,-1.0393,-1.0381,-1.0378,-1.037,-1.0365,-1.0362,-1.0355,-1.035,-1.0343,-1.0339,-1.0331,-1.0326,-1.0319,-1.0316,-1.032,-1.0302,-1.0307,-1.03,-1.0301,-1.0296,-1.0296,-1.0279,-1.0293,-1.0293,-1.0293,-1.0293,0,-1.0388,-1.0378,-1.0376,-1.0369,-1.0358,-1.0357,-1.0346,-1.0343,-1.0338,-1.0331,-1.0331,-1.0324,-1.032,-1.0313,-1.031,-1.0299,-1.0297,-1.0295,-1.0295,-1.0295,-1.0295,-1.0291,-1.0292,-1.0293,-1.0293,-1.0293,-1.0293,0,-1.0371,-1.037,-1.0358,-1.0353,-1.0351,-1.0344,-1.0339,-1.0333,-1.033,-1.0321,-1.0319,-1.0315,-1.0306,-1.0303,-1.0292,-1.029,-1.0278,-1.0278,-1.0281,-1.0281,-1.0275,-1.0275,-1.0254,-1.0252,-1.0267,-1.0267,-1.0267,0,-1.036,-1.0353,-1.0347,-1.0343,-1.034,-1.0333,-1.0328,-1.0327,-1.0322,-1.0315,-1.031,-1.0302,-1.0295,-1.0281,-1.0277,-1.0269,-1.0269,-1.0262,-1.0267,-1.0269,-1.0269,-1.027,-1.0269,-1.0261,-1.0261,-1.0261,-1.026,0,-1.034,-1.034,-1.0333,-1.0328,-1.0322,-1.0317,-1.0312,-1.0309,-1.0307,-1.0301,-1.0294,-1.0289,-1.0279,-1.0271,-1.0263,-1.0259,-1.026,-1.0259,-1.0257,-1.0258,-1.026,-1.0259,-1.0278,-1.0259,-1.0259,-1.026,-1.026,-1.026,-1.0325,-1.032,-1.0316,-1.0309,-1.0306,-1.0302,-1.0296,-1.0294,-1.0288,-1.028,-1.028,-1.0272,-1.0267,-1.0257,-1.0253,-1.0246,-1.0248,-1.0245,-1.0244,-1.0244,-1.0244,-1.0261,-1.0245,-1.0245,-1.0245,-1.0245,-1.0245,0,-1.0306,-1.0304,-1.0298,-1.0292,-1.0287,-1.029,-1.0285,-1.0281,-1.0274,-1.0269,-1.0264,-1.0255,-1.0248,-1.0244,-1.0237,-1.0233,-1.0233,-1.0231,-1.0231,-1.0231,-1.0242,-1.0245,-1.0231,-1.0231,-1.0231,-1.0231,-1.0231,-1.0231,-1.0295,-1.0286,-1.0286,-1.0275,-1.0273,-1.0266,-1.0263,-1.026,-1.0257,-1.0248,-1.0243,-1.0241,-1.0237,-1.023,-1.0224,-1.0223,-1.0221,-1.0219,-1.0218,-1.0228,-1.023,-1.0231,-1.0233,-1.0218,-1.0218,-1.0207,-1.0207,-1.0207]}]]